Wind_Speed
15 13 13 11 10 10 9 10 10 10 10 9 7 6 5 3 1 2 4 6 8 9 7 4 3 3 4 5 5 6 7 9 10 11 11 12 13 13 14 13 13 14
15 14 13 12 11 11 11 11 12 12 12 11 9 8 6 5 2 1 3 5 6 7 5 3 2 2 2 3 3 4 5 6 8 8 9 11 11 11 12 12 12 12
14 13 13 12 12 12 12 13 14 14 13 12 11 10 8 7 4 3 2 3 3 4 4 2 2 2 2 2 2 3 3 4 5 6 7 9 9 9 10 10 11 10
14 13 13 12 12 12 13 14 13 12 11 12 12 11 10 8 6 5 3 1 1 2 3 2 2 2 2 2 1 1 2 3 4 4 5 8 8 8 8 8 9 9
13 13 12 12 11 12 12 12 11 10 11 12 13 12 11 10 9 7 5 3 1 1 2 1 1 2 2 2 1 1 2 2 3 2 3 5 6 6 6 5 6 7
14 13 12 12 11 10 11 11 11 11 12 13 13 13 13 12 10 8 6 5 3 2 0 1 1 2 2 3 2 1 2 2 2 1 1 3 4 5 4 4 4 5
15 14 13 13 12 11 11 12 12 13 13 14 14 14 14 13 12 9 8 6 5 4 2 1 2 3 3 4 3 3 2 2 2 1 1 0 2 2 3 3 3 4
16 15 14 14 14 13 12 13 14 15 15 15 15 15 15 14 13 11 10 9 7 5 4 2 2 4 5 5 4 4 3 3 3 2 2 1 1 1 1 1 2 3
17 16 15 15 15 15 15 15 16 16 17 17 17 17 17 16 14 12 11 10 9 7 5 4 3 4 5 5 5 5 5 5 5 4 4 3 3 3 2 2 2 3
20 18 17 18 18 18 18 17 17 18 18 18 18 18 18 17 15 14 13 12 11 9 7 6 5 5 5 6 6 6 6 6 6 6 5 4 4 4 4 3 4 4
22 21 20 21 21 20 20 19 19 19 19 19 19 19 19 18 17 16 15 14 12 10 9 8 6 6 6 7 7 7 7 6 6 7 7 6 6 5 5 5 5 5
23 23 23 23 23 23 22 21 20 20 19 20 20 20 20 20 19 18 17 15 14 12 10 10 8 8 7 8 8 8 8 8 8 8 8 7 7 6 6 6 6 6
25 24 24 23 23 23 23 23 22 21 21 21 21 21 22 21 21 20 19 17 15 14 13 11 10 9 9 9 10 10 10 10 10 9 9 8 8 8 7 6 6 6
27 25 25 24 24 24 24 24 23 23 23 23 23 22 23 23 22 21 20 18 17 16 14 13 12 12 11 11 11 11 11 11 11 11 11 10 10 9 8 7 7 6
28 27 26 26 26 26 26 26 25 25 24 24 24 24 23 22 21 21 21 20 19 17 16 16 15 13 12 12 12 12 12 12 12 12 13 12 12 11 10 9 8 7
29 28 27 27 27 28 28 27 27 26 25 24 24 24 24 23 22 22 22 21 20 19 18 18 17 15 13 13 12 12 12 12 13 13 13 14 13 13 12 12 10 9
30 30 30 30 29 30 29 29 28 26 25 25 25 25 26 25 24 24 23 22 21 20 19 19 18 16 14 13 13 12 12 12 12 13 13 14 15 14 14 13 13 12
32 31 31 31 31 31 30 29 28 27 26 26 26 27 27 27 26 26 25 23 23 22 21 20 18 16 14 13 13 13 12 12 12 12 13 14 15 15 15 15 15 14
33 32 32 32 32 31 30 29 29 28 29 29 28 29 29 28 28 28 26 25 24 24 22 21 19 18 16 14 13 13 13 13 12 12 12 13 14 15 16 16 16 16
33 32 33 34 33 31 30 30 30 31 31 30 29 30 30 30 30 29 28 27 26 25 23 22 20 19 17 14 13 13 13 13 13 13 13 13 14 14 15 16 17 17
33 33 34 34 33 31 31 31 32 33 32 32 32 32 32 31 30 30 29 27 26 25 24 23 21 20 18 16 14 13 14 14 14 14 14 14 14 14 15 16 16 16
34 34 34 34 32 31 32 33 34 35 35 34 32 31 30 30 31 31 29 28 26 26 25 24 22 20 19 17 15 14 14 15 15 15 15 15 14 14 15 15 16 16
35 34 34 33 32 32 33 35 36 36 36 33 31 31 31 32 33 32 30 29 27 26 26 24 23 21 20 18 16 15 15 16 16 16 15 15 15 15 15 16 17 17
34 33 33 33 33 34 36 37 38 37 36 33 33 34 34 33 32 30 29 29 28 26 25 24 23 22 21 20 18 16 16 16 16 16 16 16 15 15 15 16 17 17
33 34 35 35 35 36 38 39 38 36 34 33 32 33 32 30 30 30 30 30 28 26 25 24 23 22 21 21 19 17 17 17 16 17 17 17 16 15 15 16 16 17
35 36 36 36 37 39 38 37 35 33 32 30 29 28 28 28 30 30 31 31 29 27 26 25 24 23 22 22 20 19 18 17 17 18 19 17 16 15 15 16 16 16
Wind_Direction
210 213 220 230 239 247 252 253 255 260 263 258 253 259 265 278 318 16 14 17 17 14 18 40 66 77 82 79 70 69 76 79 78 72 67 68 68 67 67 68 65 63
213 218 225 232 237 244 250 253 261 268 268 256 246 250 253 253 258 300 347 5 14 17 25 52 87 95 98 88 71 68 77 82 83 75 66 67 67 64 64 63 61 57
215 220 227 234 240 247 255 262 269 273 267 249 239 245 247 242 243 252 296 349 12 26 36 67 116 127 132 116 84 80 86 89 87 76 68 68 64 63 65 60 58 54
217 225 232 241 249 257 262 267 269 268 258 243 238 241 240 236 236 238 247 278 350 34 48 72 132 149 157 162 140 106 111 108 100 78 67 72 64 61 64 57 55 53
226 233 239 247 257 261 258 259 260 257 252 245 239 238 237 234 234 235 235 235 248 37 52 59 143 168 178 191 205 163 147 134 123 92 60 73 67 57 58 51 49 50
230 236 242 248 256 259 254 252 252 251 251 247 240 237 235 233 232 233 234 234 237 243 314 0 201 193 194 202 211 198 174 165 152 150 37 71 68 56 53 40 34 39
232 238 244 247 251 257 256 251 249 250 251 247 241 238 235 232 231 231 235 237 236 240 251 280 234 209 206 211 217 217 204 201 202 213 269 57 66 49 44 30 14 22
233 238 244 248 250 255 256 251 250 250 250 246 242 240 236 233 232 232 235 236 234 235 237 240 239 220 217 222 226 229 226 223 228 234 248 262 261 315 8 5 343 354
234 237 243 249 252 255 255 252 250 249 249 249 245 241 236 233 233 234 235 234 230 231 232 232 236 227 223 227 232 238 241 240 241 241 248 260 258 264 296 315 309 319
235 238 242 248 252 255 254 253 251 250 251 250 246 242 237 233 232 232 232 230 228 229 233 236 239 234 230 231 236 242 248 250 248 244 245 255 259 264 281 294 296 298
237 240 243 248 251 254 255 254 254 253 254 251 246 242 238 233 230 229 229 230 230 233 236 239 242 241 238 237 240 245 251 256 252 245 246 251 258 267 277 286 289 290
238 241 244 248 251 254 256 257 256 256 256 252 248 244 238 233 230 230 231 232 234 235 237 240 241 242 244 243 245 248 251 255 253 249 251 253 258 265 271 280 286 290
238 241 244 248 251 254 257 259 258 258 258 256 251 244 236 233 231 230 232 234 235 235 237 240 241 242 246 246 247 249 251 252 253 254 257 258 261 264 265 274 284 293
240 242 245 248 252 255 257 259 259 260 260 256 251 244 236 233 232 231 231 231 232 235 236 238 239 241 245 248 249 251 250 251 253 255 259 260 260 262 263 268 277 287
241 243 245 248 251 254 255 257 259 260 259 255 250 244 237 232 231 231 230 229 229 232 234 236 238 241 246 250 253 253 252 252 253 255 257 259 257 257 260 263 269 275
243 245 247 249 251 253 255 257 258 259 257 253 249 243 235 229 228 230 229 230 231 232 234 236 238 241 246 253 256 256 255 253 254 256 256 255 255 254 256 261 266 268
244 247 249 250 252 253 254 255 256 257 256 252 247 241 233 227 227 229 230 232 233 233 236 238 239 241 245 253 257 255 254 254 255 257 256 254 255 255 256 260 264 266
245 247 249 251 253 254 254 254 255 254 253 249 245 240 233 227 227 230 231 232 232 233 236 238 240 241 244 251 254 252 253 255 256 257 257 256 256 257 258 260 262 266
245 247 249 252 254 254 254 253 252 251 250 248 244 239 234 228 227 229 230 231 232 232 236 238 239 240 243 248 252 252 253 255 258 261 262 262 261 259 260 259 261 266
245 247 250 252 254 253 253 251 250 250 249 247 242 237 232 228 227 228 229 230 232 233 236 238 239 240 242 245 250 253 254 255 259 263 264 265 266 264 262 261 262 266
243 245 248 250 251 251 250 249 249 249 247 245 241 236 233 231 229 229 229 230 232 234 236 237 239 240 241 244 248 252 255 255 257 262 264 266 267 266 264 263 262 265
241 243 245 247 247 247 247 248 248 248 246 243 238 232 231 233 232 230 230 231 233 234 236 238 240 240 240 243 247 251 253 254 256 260 263 265 267 267 265 262 261 265
240 241 243 246 245 244 246 248 248 248 245 240 233 229 230 233 232 229 230 233 233 233 237 239 240 241 241 243 246 249 252 253 255 259 262 264 267 268 265 262 262 266
240 242 244 246 245 244 247 249 249 248 244 238 234 232 231 230 231 229 230 234 234 235 239 242 243 243 243 244 246 249 252 253 255 258 261 263 266 268 267 265 265 267
244 245 246 244 244 246 249 249 248 246 243 239 236 232 227 227 230 230 231 235 235 236 240 243 245 245 244 245 246 247 250 251 253 256 259 262 267 270 271 270 269 270
247 245 244 244 245 249 250 249 248 246 243 239 233 225 221 225 232 233 233 236 237 237 239 242 245 246 244 245 246 247 249 250 250 253 258 263 269 273 275 274 273 272
Height
848 849 850 851 851 852 853 853 853 854 854 854 855 855 855 856 855 855 855 855 854 854 854 855 855 855 855 855 855 854 854 853 852 852 852 851 851 851 851 851 850 850
847 848 849 850 851 851 852 853 853 853 854 854 854 854 855 855 855 855 855 855 855 854 854 855 855 856 856 855 855 855 855 854 854 853 853 852 852 852 851 851 851 851
847 848 849 849 850 851 851 852 852 852 853 853 853 854 854 855 855 855 855 855 854 854 854 854 855 856 856 856 855 856 855 855 854 854 853 852 852 852 852 852 852 852
846 847 848 849 849 850 850 851 851 851 851 852 853 853 853 854 854 854 854 854 854 854 854 854 855 855 856 856 856 856 856 855 855 854 854 853 853 853 852 852 852 852
845 846 847 847 848 848 849 849 850 850 851 851 852 852 852 853 853 854 854 854 854 854 854 854 854 855 855 856 856 856 856 855 855 855 854 854 853 853 853 853 853 853
844 845 845 846 847 847 848 848 849 849 850 850 850 851 851 852 852 853 853 854 854 854 853 853 854 854 855 855 855 855 855 855 855 855 855 854 853 853 853 853 853 853
843 844 844 845 846 846 846 847 848 848 849 849 850 850 850 851 851 852 852 853 853 853 853 853 853 853 854 855 855 855 855 855 855 855 855 854 853 853 853 853 853 853
841 842 843 844 844 844 845 846 846 847 848 848 849 849 849 850 851 851 852 852 853 853 853 852 852 853 853 854 854 854 855 854 854 854 854 854 854 853 853 853 853 853
840 841 841 842 843 843 844 844 845 846 846 847 847 848 848 849 850 851 851 851 852 852 852 852 851 852 852 853 853 854 854 854 854 854 854 854 853 853 853 853 852 852
838 839 840 840 841 841 842 843 844 844 845 845 846 847 847 848 849 850 850 850 851 851 851 851 851 851 851 852 852 853 853 853 853 853 853 853 853 853 852 852 852 852
836 837 838 838 839 840 840 841 842 843 843 844 845 845 846 847 848 848 849 849 849 849 850 850 850 850 851 851 852 852 852 852 852 852 852 852 852 852 852 851 851 851
834 835 836 836 837 838 839 840 840 841 841 842 842 843 844 845 846 846 847 847 848 848 849 849 849 849 850 850 850 851 851 851 851 851 851 851 851 851 851 851 851 850
831 832 833 834 835 836 837 838 838 839 839 839 840 841 842 843 843 844 845 846 846 847 847 848 848 848 849 849 849 849 849 849 850 850 850 850 850 850 850 850 850 850
829 830 831 832 834 834 835 836 836 837 837 837 838 838 839 840 841 842 843 844 845 845 846 846 847 847 847 847 848 848 848 848 848 848 848 848 848 848 848 849 848 848
826 828 829 830 831 832 832 833 834 834 835 835 835 835 836 838 839 840 841 842 843 843 844 845 845 845 845 846 846 846 846 846 846 847 847 847 847 847 847 847 847 847
824 825 826 828 828 829 830 830 831 832 832 833 833 833 834 836 837 838 838 840 840 841 842 842 843 843 844 844 844 844 844 844 844 845 845 845 845 845 846 846 846 846
822 823 824 825 825 826 827 827 829 829 830 830 831 831 832 833 834 835 836 837 838 839 840 840 841 841 841 842 842 842 843 843 843 843 843 843 844 844 844 844 845 845
819 820 821 821 822 823 824 825 826 827 827 827 828 828 829 830 831 832 833 834 835 836 837 838 838 839 839 840 840 841 841 841 841 841 841 842 842 842 842 843 843 843
816 817 818 818 819 820 821 822 823 823 823 824 824 825 826 827 828 829 830 832 833 833 834 835 836 837 837 838 838 839 839 839 839 839 839 840 840 840 840 841 841 841
813 814 815 815 816 817 818 819 819 819 820 820 821 822 823 824 825 826 827 829 830 831 832 833 834 835 835 836 836 837 837 838 838 838 838 838 838 838 838 838 839 839
810 810 811 812 813 814 815 815 815 815 816 817 817 818 819 821 823 824 825 826 828 829 830 830 831 832 833 834 834 835 836 836 836 836 836 836 836 836 836 836 836 837
806 807 807 808 809 811 811 811 811 811 812 813 814 816 819 820 821 822 823 824 826 827 827 828 829 830 831 832 832 833 833 834 834 834 834 834 834 834 834 834 834 835
802 803 804 805 806 807 807 807 807 807 808 810 811 813 814 816 817 818 820 821 823 824 824 825 827 828 829 830 830 831 831 831 832 832 832 832 832 832 832 832 833 833
799 800 801 802 803 803 802 802 803 803 804 806 807 807 809 812 815 817 819 819 820 821 822 823 824 826 827 828 828 829 829 829 830 830 830 830 830 830 830 830 831 831
797 797 798 798 798 798 798 798 799 800 801 803 804 805 808 811 813 815 816 816 817 819 820 820 822 823 824 825 826 826 827 827 828 828 828 828 828 828 828 828 828 829
793 793 794 794 794 794 794 795 797 798 799 800 802 804 807 810 811 811 812 813 814 815 816 817 819 820 822 823 824 824 825 825 825 825 825 825 826 826 826 826 826 826